Weather History for Kahului, HI

Change the Weather History Date:

Friday, May 23, 2014

  Actual Average Record
Temperature  
Mean Temperature 80 °F 76 °F  
Max Temperature 90 °F 85 °F 92 °F (1996)
Min Temperature 70 °F 68 °F 60 °F (1951)
Degree Days  
Heating Degree Days 0 0  
Month to date heating degree days 0 0  
Since 1 July heating degree days 0 0  
Cooling Degree Days 15 11  
Month to date cooling degree days 274 240  
Year to date cooling degree days 1384 1166  
Growing Degree Days 30 (Base 50)    
Moisture  
Dew Point 68 °F    
Average Humidity 67    
Maximum Humidity 90    
Minimum Humidity 44    
Precipitation  
Precipitation 0.00 in 0.01 in 0.74 in (1978)
Month to date precipitation 1.01 0.63  
Year to date precipitation 13.94 9.39  
Snow  
Snow 0.00 in - - ()
Month to date snowfall 0.0  
Since 1 July snowfall 0.0  
Snow Depth 0.00 in    
Sea Level Pressure  
Sea Level Pressure 30.02 in    
Wind  
Wind Speed 4 mph (NW)    
Max Wind Speed 10 mph    
Max Gust Speed -    
Visibility 10 miles    
Events      
T = Trace of Precipitation, MM = Missing Value Source: NWS Daily Summary

Daily Weather History Graph

Daily Weather History Graph

Search for Another Location

Airport:

Trip Planner

Search our weather history database for the weather conditions in past years. The results will help you decide how hot, cold, wet, or windy it might be!

Date:

Astronomy

May. 23, 2014 Rise Set
Actual Time 5:45 AM HST 6:59 PM HST
Civil Twilight 5:21 AM HST 7:23 PM HST
Nautical Twilight 4:52 AM HST 7:52 PM HST
Astronomical Twilight 4:23 AM HST 8:22 PM HST
Moon 2:07 AM HST (5/23) 2:39 PM HST (5/23)
Length of Visible Light 14h 02m
Length of Day
13h 14m
Waning Crescent, 25% of the Moon is Illuminated
May 23
Waning Crescent
May 28
New
Jun 5
First Quarter
Jun 12
Full
Jun 19
Last Quarter

Hourly Weather History & Observations

Time (HST) Temp. Heat Index Dew Point Humidity Pressure Visibility Wind Dir Wind Speed Gust Speed Precip Events Conditions
12:54 AM 73.0 °F - 68.0 °F 84% 30.03 in 10.0 mi Calm Calm - N/A   Clear
1:54 AM 72.0 °F - 68.0 °F 87% 30.02 in 10.0 mi Calm Calm - N/A   Clear
2:54 AM 71.1 °F - 66.9 °F 87% 30.01 in 10.0 mi SE 4.6 mph - N/A   Clear
3:54 AM 70.0 °F - 66.9 °F 90% 30.01 in 10.0 mi SSE 4.6 mph - N/A   Clear
4:54 AM 69.1 °F - 66.0 °F 90% 30.00 in 10.0 mi SSE 5.8 mph - N/A   Clear
5:54 AM 70.0 °F - 66.0 °F 87% 30.01 in 10.0 mi Calm Calm - N/A   Clear
6:37 AM 69.8 °F - 64.4 °F 83% 30.01 in 10.0 mi SSE 4.6 mph - N/A   Partly Cloudy
6:54 AM 72.0 °F - 66.0 °F 81% 30.03 in 10.0 mi Calm Calm - N/A   Clear
7:54 AM 78.1 °F - 69.1 °F 74% 30.03 in 10.0 mi Calm Calm - N/A   Scattered Clouds
8:54 AM 82.0 °F 85.5 °F 69.1 °F 65% 30.04 in 10.0 mi North 4.6 mph - N/A   Partly Cloudy
9:54 AM 84.9 °F 87.6 °F 66.9 °F 55% 30.03 in 10.0 mi Variable 4.6 mph - N/A   Scattered Clouds
10:54 AM 86.0 °F 88.8 °F 66.9 °F 53% 30.02 in 10.0 mi NNW 8.1 mph - N/A   Scattered Clouds
11:54 AM 88.0 °F 90.7 °F 66.9 °F 49% 30.01 in 10.0 mi NW 8.1 mph - N/A   Scattered Clouds
12:54 PM 88.0 °F 91.4 °F 68.0 °F 51% 30.01 in 10.0 mi NNW 6.9 mph - N/A   Scattered Clouds
1:54 PM 89.1 °F 92.1 °F 66.9 °F 48% 30.00 in 10.0 mi North 10.4 mph - N/A   Scattered Clouds
2:54 PM 89.1 °F 91.0 °F 64.9 °F 45% 29.99 in 10.0 mi Variable 6.9 mph - N/A   Scattered Clouds
3:54 PM 88.0 °F 90.7 °F 66.9 °F 49% 29.97 in 10.0 mi Variable 4.6 mph - N/A   Scattered Clouds
4:54 PM 84.0 °F 86.5 °F 66.9 °F 56% 29.97 in 10.0 mi NW 9.2 mph - N/A   Scattered Clouds
5:54 PM 82.0 °F 85.9 °F 70.0 °F 67% 29.99 in 10.0 mi West 11.5 mph - N/A   Scattered Clouds
6:54 PM 79.0 °F - 70.0 °F 74% 30.01 in 10.0 mi West 8.1 mph - N/A   Scattered Clouds
7:54 PM 78.1 °F - 69.1 °F 74% 30.03 in 10.0 mi WNW 3.5 mph - N/A   Clear
8:54 PM 77.0 °F - 70.0 °F 79% 30.05 in 10.0 mi East 3.5 mph - N/A   Partly Cloudy
9:54 PM 75.0 °F - 70.0 °F 84% 30.06 in 10.0 mi Calm Calm - N/A   Partly Cloudy
10:54 PM 73.9 °F - 69.1 °F 85% 30.06 in 10.0 mi ENE 3.5 mph - N/A   Partly Cloudy
11:54 PM 72.0 °F - 68.0 °F 87% 30.05 in 10.0 mi South 4.6 mph - N/A   Mostly Cloudy